| time (UTC) | temp F | wind direction | speed MPH | gust MPH | rain 1hr in | rain 24hr in | rain mn in | humidity % | barometer mb |
| 20260906135007 | 69 | 49 | 1.0 | 3.0 | 0.00 | 0.00 | 0.00 | 98 | 980.7 |
| 20260906134502 | 69 | 48 | 0.0 | 0.0 | 0.00 | 0.00 | 0.00 | 99 | 980.6 |
| 20260906133957 | 69 | 48 | 0.0 | 2.0 | 0.00 | 0.00 | 0.00 | 99 | 980.6 |
| 20260906133453 | 69 | 50 | 1.0 | 1.0 | 0.00 | 0.00 | 0.00 | 99 | 980.7 |
| 20260906132948 | 69 | 50 | 1.0 | 1.0 | 0.00 | 0.00 | 0.00 | 99 | 980.5 |
| 20260906132443 | 69 | 50 | 0.0 | 0.0 | 0.00 | 0.00 | 0.00 | 99 | 980.4 |
| 20260906131938 | 68 | 50 | 0.0 | 0.0 | 0.00 | 0.00 | 0.00 | 99 | 980.5 |
| 20260906131434 | 68 | 50 | 0.0 | 0.0 | 0.00 | 0.00 | 0.00 | 99 | 980.4 |
| 20260906130930 | 68 | 50 | 0.0 | 0.0 | 0.00 | 0.00 | 0.00 | 99 | 980.3 |
| 20260906130428 | 69 | 50 | 0.0 | 1.0 | 0.00 | 0.00 | 0.00 | 99 | 980.4 |
| 20260906125928 | 69 | 50 | 0.0 | 1.0 | 0.00 | 0.00 | 0.00 | 99 | 980.5 |
| 20260906125426 | 68 | 50 | 0.0 | 0.0 | 0.00 | 0.00 | 0.00 | 99 | 980.6 |
| 20260906124925 | 68 | 50 | 0.0 | 0.0 | 0.00 | 0.00 | 0.00 | 99 | 980.6 |
| 20260906124421 | 68 | 50 | 0.0 | 0.0 | 0.00 | 0.00 | 0.00 | 99 | 980.4 |
| 20260906123916 | 68 | 50 | 0.0 | 0.0 | 0.00 | 0.00 | 0.00 | 99 | 980.4 |
| 20260906123415 | 68 | 50 | 0.0 | 0.0 | 0.00 | 0.00 | 0.00 | 99 | 980.3 |
| 20260906122915 | 68 | 50 | 0.0 | 1.0 | 0.00 | 0.00 | 0.00 | 99 | 980.2 |
| 20260906122410 | 68 | 50 | 0.0 | 0.0 | 0.00 | 0.00 | 0.00 | 99 | 980.1 |
| 20260906121907 | 68 | 50 | 0.0 | 1.0 | 0.00 | 0.00 | 0.00 | 99 | 980.2 |
| 20260906121403 | 67 | 50 | 0.0 | 0.0 | 0.00 | 0.00 | 0.00 | 99 | 980.0 |
| 20260906120859 | 68 | 50 | 2.0 | 2.0 | 0.00 | 0.00 | 0.00 | 99 | 979.8 |
| 20260906120354 | 67 | 50 | 1.0 | 1.0 | 0.00 | 0.00 | 0.00 | 99 | 980.0 |
| 20260906115850 | 68 | 50 | 1.0 | 2.0 | 0.00 | 0.00 | 0.00 | 99 | 979.7 |
| 20260906115345 | 68 | 50 | 0.0 | 0.0 | 0.00 | 0.00 | 0.00 | 99 | 979.7 |
| 20260906114845 | 68 | 50 | 0.0 | 0.0 | 0.00 | 0.00 | 0.00 | 99 | 979.8 |
| 20260906114341 | 68 | 50 | 0.0 | 0.0 | 0.00 | 0.00 | 0.00 | 99 | 979.7 |
| 20260906113841 | 68 | 50 | 0.0 | 0.0 | 0.00 | 0.00 | 0.00 | 99 | 979.8 |
| 20260906113340 | 67 | 50 | 1.0 | 1.0 | 0.00 | 0.00 | 0.00 | 99 | 979.6 |
| 20260906112835 | 0 | 0.0 | 0.0 | 0.00 | 0.00 | 0.00 | 979.6 | ||
| 20260906112332 | 67 | 55 | 0.0 | 0.0 | 0.00 | 0.00 | 0.00 | 99 | 979.4 |
| 20260906111826 | 67 | 55 | 0.0 | 0.0 | 0.00 | 0.00 | 0.00 | 99 | 979.3 |
| 20260906111325 | 67 | 55 | 0.0 | 0.0 | 0.00 | 0.00 | 0.00 | 99 | 979.4 |
| 20260906110821 | 67 | 56 | 0.0 | 0.0 | 0.00 | 0.00 | 0.00 | 99 | 979.1 |
| 20260906110316 | 67 | 56 | 0.0 | 0.0 | 0.00 | 0.00 | 0.00 | 99 | 979.2 |
| 20260906105815 | 67 | 56 | 1.0 | 1.0 | 0.00 | 0.00 | 0.00 | 99 | 979.1 |
| 20260906105311 | 67 | 126 | 2.0 | 2.0 | 0.00 | 0.00 | 0.00 | 99 | 979.2 |
| 20260906104807 | 67 | 84 | 0.0 | 1.0 | 0.00 | 0.00 | 0.00 | 99 | 979.0 |
| 20260906104305 | 67 | 85 | 1.0 | 3.0 | 0.00 | 0.00 | 0.00 | 99 | 978.9 |
| 20260906103804 | 67 | 15 | 0.0 | 0.0 | 0.00 | 0.00 | 0.00 | 99 | 978.9 |
| 20260906103303 | 67 | 15 | 0.0 | 0.0 | 0.00 | 0.00 | 0.00 | 99 | 978.8 |
| 20260906102759 | 67 | 15 | 0.0 | 0.0 | 0.00 | 0.00 | 0.00 | 99 | 978.9 |
| 20260906102258 | 67 | 15 | 0.0 | 0.0 | 0.00 | 0.00 | 0.00 | 99 | 978.9 |
| 20260906101753 | 67 | 15 | 0.0 | 0.0 | 0.00 | 0.00 | 0.00 | 99 | 978.9 |
| 20260906101248 | 67 | 15 | 0.0 | 1.0 | 0.00 | 0.00 | 0.00 | 99 | 978.9 |
| 20260906100743 | 68 | 15 | 0.0 | 0.0 | 0.00 | 0.00 | 0.00 | 99 | 979.1 |
| 20260906100242 | 67 | 15 | 0.0 | 0.0 | 0.00 | 0.00 | 0.00 | 99 | 978.8 |
| 20260906095738 | 67 | 15 | 0.0 | 0.0 | 0.00 | 0.00 | 0.00 | 99 | 978.8 |
| 20260906095233 | 68 | 15 | 0.0 | 0.0 | 0.00 | 0.00 | 0.00 | 99 | 978.8 |
| 20260906094732 | 68 | 15 | 0.0 | 0.0 | 0.00 | 0.00 | 0.00 | 99 | 978.7 |
| 20260906094227 | 68 | 15 | 0.0 | 0.0 | 0.00 | 0.00 | 0.00 | 99 | 978.7 |
| 20260906093724 | 68 | 15 | 0.0 | 0.0 | 0.00 | 0.00 | 0.00 | 99 | 978.8 |
| 20260906093219 | 68 | 15 | 0.0 | 0.0 | 0.00 | 0.00 | 0.00 | 99 | 978.7 |
| 20260906092715 | 68 | 15 | 0.0 | 1.0 | 0.00 | 0.00 | 0.00 | 99 | 978.6 |
| 20260906092214 | 68 | 15 | 0.0 | 0.0 | 0.00 | 0.00 | 0.00 | 99 | 978.9 |
| 20260906091711 | 68 | 15 | 0.0 | 0.0 | 0.00 | 0.00 | 0.00 | 99 | 978.9 |
| 20260906091207 | 68 | 15 | 0.0 | 1.0 | 0.00 | 0.00 | 0.00 | 99 | 978.9 |
| 20260906090703 | 68 | 15 | 0.0 | 1.0 | 0.00 | 0.00 | 0.00 | 99 | 978.8 |
| 20260906090202 | 68 | 15 | 0.0 | 0.0 | 0.00 | 0.00 | 0.00 | 99 | 978.7 |
| 20260906085701 | 68 | 14 | 2.0 | 2.0 | 0.00 | 0.00 | 0.00 | 99 | 978.8 |
| 20260906085200 | 68 | 14 | 0.0 | 0.0 | 0.00 | 0.00 | 0.00 | 99 | 978.6 |
| 20260906084655 | 68 | 14 | 0.0 | 0.0 | 0.00 | 0.00 | 0.00 | 99 | 978.9 |
| 20260906084154 | 68 | 14 | 0.0 | 0.0 | 0.00 | 0.00 | 0.00 | 99 | 978.8 |
| 20260906083649 | 68 | 14 | 0.0 | 0.0 | 0.00 | 0.00 | 0.00 | 99 | 978.6 |
| 20260906083145 | 68 | 14 | 0.0 | 0.0 | 0.00 | 0.00 | 0.00 | 99 | 978.8 |
| 20260906082640 | 68 | 14 | 0.0 | 0.0 | 0.00 | 0.00 | 0.00 | 99 | 978.6 |
| 20260906082136 | 68 | 14 | 0.0 | 0.0 | 0.00 | 0.00 | 0.00 | 99 | 978.4 |
| 20260906081631 | 68 | 14 | 0.0 | 0.0 | 0.00 | 0.00 | 0.00 | 99 | 978.6 |
| 20260906081126 | 68 | 14 | 0.0 | 0.0 | 0.00 | 0.00 | 0.00 | 99 | 978.6 |
| 20260906080622 | 68 | 14 | 0.0 | 0.0 | 0.00 | 0.00 | 0.00 | 99 | 978.3 |
| 20260906080119 | 68 | 14 | 0.0 | 0.0 | 0.00 | 0.00 | 0.00 | 99 | 978.5 |
| 20260906075612 | 68 | 14 | 0.0 | 0.0 | 0.00 | 0.00 | 0.00 | 99 | 978.5 |
| 20260906075107 | 68 | 14 | 0.0 | 0.0 | 0.00 | 0.00 | 0.00 | 99 | 978.6 |
| 20260906074602 | 68 | 14 | 0.0 | 0.0 | 0.00 | 0.00 | 0.00 | 99 | 978.4 |
| 20260906074055 | 68 | 14 | 0.0 | 0.0 | 0.00 | 0.00 | 0.00 | 99 | 978.5 |
| 20260906073550 | 68 | 14 | 0.0 | 0.0 | 0.00 | 0.00 | 0.00 | 99 | 978.6 |
| 20260906073046 | 68 | 14 | 0.0 | 0.0 | 0.00 | 0.00 | 0.00 | 99 | 978.5 |
| 20260906072541 | 68 | 14 | 0.0 | 0.0 | 0.00 | 0.00 | 0.00 | 99 | 978.5 |
| 20260906072037 | 68 | 14 | 0.0 | 0.0 | 0.00 | 0.00 | 0.00 | 99 | 978.6 |
| 20260906071533 | 68 | 14 | 0.0 | 0.0 | 0.00 | 0.00 | 0.00 | 99 | 978.5 |
| 20260906071028 | 68 | 14 | 0.0 | 0.0 | 0.00 | 0.00 | 0.00 | 99 | 978.4 |
| 20260906070525 | 68 | 14 | 0.0 | 0.0 | 0.00 | 0.00 | 0.00 | 99 | 978.6 |
| 20260906070020 | 68 | 14 | 0.0 | 0.0 | 0.00 | 0.00 | 0.00 | 99 | 978.5 |
| 20260906065519 | 68 | 14 | 0.0 | 0.0 | 0.00 | 0.00 | 0.00 | 99 | 978.4 |
| 20260906065015 | 68 | 14 | 0.0 | 0.0 | 0.00 | 0.00 | 0.00 | 99 | 978.5 |
| 20260906064511 | 68 | 14 | 0.0 | 0.0 | 0.00 | 0.00 | 0.00 | 99 | 978.7 |
| 20260906064011 | 68 | 14 | 0.0 | 0.0 | 0.00 | 0.00 | 0.00 | 99 | 978.7 |
| 20260906063506 | 68 | 14 | 0.0 | 0.0 | 0.00 | 0.00 | 0.00 | 99 | 978.9 |
| 20260906063001 | 68 | 14 | 0.0 | 0.0 | 0.00 | 0.00 | 0.00 | 99 | 978.9 |
| 20260906062456 | 68 | 14 | 0.0 | 0.0 | 0.00 | 0.00 | 0.00 | 99 | 978.6 |
| 20260906061951 | 68 | 14 | 0.0 | 0.0 | 0.00 | 0.00 | 0.00 | 99 | 978.7 |
| 20260906061442 | 68 | 14 | 0.0 | 0.0 | 0.00 | 0.00 | 0.00 | 99 | 978.7 |
| 20260906060941 | 68 | 14 | 0.0 | 0.0 | 0.00 | 0.00 | 0.00 | 99 | 978.7 |
| 20260906060438 | 68 | 14 | 0.0 | 0.0 | 0.00 | 0.00 | 0.00 | 99 | 978.7 |
| 20260906055934 | 68 | 14 | 0.0 | 0.0 | 0.00 | 0.00 | 0.00 | 99 | 978.6 |
| 20260906055430 | 68 | 14 | 0.0 | 0.0 | 0.00 | 0.00 | 0.00 | 99 | 978.7 |
| 20260906054925 | 68 | 14 | 0.0 | 0.0 | 0.00 | 0.00 | 0.00 | 99 | 978.6 |
| 20260906054420 | 68 | 14 | 0.0 | 0.0 | 0.00 | 0.00 | 0.00 | 99 | 978.5 |
| 20260906053916 | 68 | 14 | 0.0 | 0.0 | 0.00 | 0.00 | 0.00 | 99 | 978.5 |
| 20260906053412 | 68 | 14 | 0.0 | 0.0 | 0.00 | 0.00 | 0.00 | 99 | 978.6 |
| 20260906052907 | 68 | 14 | 0.0 | 0.0 | 0.00 | 0.00 | 0.00 | 99 | 978.4 |
| 20260906052403 | 68 | 14 | 0.0 | 0.0 | 0.00 | 0.00 | 0.00 | 99 | 978.6 |
| 20260906051900 | 68 | 14 | 0.0 | 0.0 | 0.00 | 0.00 | 0.00 | 99 | 978.6 |
| 20260906051400 | 68 | 14 | 0.0 | 0.0 | 0.00 | 0.00 | 0.00 | 99 | 978.8 |
| 20260906050856 | 68 | 14 | 0.0 | 0.0 | 0.00 | 0.00 | 0.00 | 99 | 978.7 |
| 20260906050350 | 68 | 14 | 0.0 | 0.0 | 0.00 | 0.00 | 0.00 | 99 | 978.6 |
| 20260906045849 | 68 | 14 | 0.0 | 0.0 | 0.00 | 0.00 | 0.00 | 99 | 978.9 |
| 20260906045343 | 68 | 14 | 0.0 | 0.0 | 0.00 | 0.00 | 0.00 | 99 | 978.5 |
| 20260906044840 | 68 | 14 | 0.0 | 0.0 | 0.00 | 0.00 | 0.00 | 99 | 978.6 |
| 20260906044334 | 68 | 14 | 0.0 | 0.0 | 0.00 | 0.00 | 0.00 | 99 | 978.5 |
| 20260906043830 | 68 | 14 | 0.0 | 0.0 | 0.00 | 0.00 | 0.00 | 99 | 978.4 |
| 20260906043327 | 69 | 14 | 0.0 | 0.0 | 0.00 | 0.00 | 0.00 | 99 | 978.6 |
| 20260906042826 | 69 | 14 | 0.0 | 0.0 | 0.00 | 0.00 | 0.00 | 99 | 978.7 |
| 20260906042325 | 69 | 14 | 0.0 | 0.0 | 0.00 | 0.00 | 0.00 | 99 | 978.6 |
| 20260906041821 | 69 | 14 | 0.0 | 0.0 | 0.00 | 0.00 | 0.00 | 99 | 978.7 |
| 20260906041316 | 69 | 14 | 0.0 | 0.0 | 0.00 | 0.00 | 0.00 | 99 | 978.9 |
| 20260906040811 | 68 | 14 | 0.0 | 0.0 | 0.00 | 0.00 | 0.00 | 99 | 978.7 |
| 20260906040306 | 68 | 14 | 0.0 | 0.0 | 0.00 | 0.00 | 0.00 | 99 | 978.9 |
| 20260906035801 | 69 | 14 | 0.0 | 0.0 | 0.00 | 0.78 | 0.78 | 99 | 978.8 |
| 20260906035252 | 69 | 14 | 0.0 | 0.0 | 0.00 | 0.78 | 0.78 | 99 | 978.8 |
| 20260906034751 | 69 | 14 | 0.0 | 0.0 | 0.00 | 0.78 | 0.78 | 99 | 979.0 |
| 20260906034246 | 69 | 14 | 0.0 | 0.0 | 0.00 | 0.78 | 0.78 | 99 | 979.0 |
| 20260906033742 | 69 | 14 | 0.0 | 0.0 | 0.00 | 0.78 | 0.78 | 99 | 979.1 |
| 20260906033241 | 69 | 14 | 0.0 | 0.0 | 0.00 | 0.78 | 0.78 | 99 | 979.2 |
| 20260906032738 | 69 | 14 | 0.0 | 0.0 | 0.00 | 0.78 | 0.78 | 99 | 979.1 |
| 20260906032238 | 69 | 14 | 0.0 | 0.0 | 0.00 | 0.78 | 0.78 | 99 | 979.1 |
| 20260906031733 | 70 | 14 | 0.0 | 0.0 | 0.00 | 0.78 | 0.78 | 99 | 979.3 |
| 20260906031229 | 70 | 14 | 0.0 | 0.0 | 0.00 | 0.78 | 0.78 | 99 | 979.3 |
| 20260906030729 | 70 | 14 | 0.0 | 0.0 | 0.00 | 0.78 | 0.78 | 99 | 979.3 |
| 20260906030224 | 70 | 14 | 0.0 | 0.0 | 0.00 | 0.78 | 0.78 | 99 | 979.5 |
| 20260906025723 | 70 | 14 | 0.0 | 0.0 | 0.00 | 0.78 | 0.78 | 99 | 979.7 |
| 20260906025218 | 70 | 14 | 0.0 | 0.0 | 0.00 | 0.78 | 0.78 | 99 | 979.5 |
| 20260906024717 | 70 | 14 | 0.0 | 0.0 | 0.07 | 0.78 | 0.78 | 99 | 979.3 |
| 20260906024216 | 70 | 14 | 0.0 | 0.0 | 0.07 | 0.78 | 0.78 | 99 | 979.5 |
| 20260906023713 | 71 | 14 | 0.0 | 0.0 | 0.00 | 0.77 | 0.77 | 99 | 979.3 |
| 20260906023212 | 70 | 14 | 0.0 | 2.0 | 0.00 | 0.77 | 0.77 | 99 | 979.1 |
| 20260906022708 | 70 | 14 | 2.0 | 3.0 | 0.00 | 0.77 | 0.77 | 99 | 978.9 |
| 20260906022203 | 71 | 15 | 0.0 | 0.0 | 0.00 | 0.77 | 0.77 | 99 | 979.0 |
| 20260906021700 | 71 | 15 | 0.0 | 0.0 | 0.00 | 0.77 | 0.77 | 99 | 979.1 |
| 20260906021158 | 71 | 15 | 0.0 | 0.0 | 0.00 | 0.77 | 0.77 | 99 | 979.1 |
| 20260906020653 | 71 | 15 | 0.0 | 0.0 | 0.00 | 0.77 | 0.77 | 99 | 979.2 |
| 20260906020148 | 71 | 15 | 0.0 | 1.0 | 0.00 | 0.77 | 0.77 | 99 | 979.0 |
| 20260906015647 | 71 | 15 | 0.0 | 0.0 | 0.00 | 0.77 | 0.77 | 99 | 979.3 |
| 20260906015141 | 71 | 15 | 1.0 | 2.0 | 0.00 | 0.77 | 0.77 | 99 | 979.3 |
| 20260906014640 | 72 | 15 | 0.0 | 0.0 | 0.00 | 0.77 | 0.77 | 99 | 979.0 |
| 20260906014136 | 72 | 15 | 0.0 | 0.0 | 0.05 | 0.77 | 0.77 | 99 | 979.0 |
| 20260906013632 | 72 | 15 | 0.0 | 2.0 | 0.12 | 0.77 | 0.77 | 99 | 978.9 |
| 20260906013127 | 72 | 15 | 0.0 | 0.0 | 0.07 | 0.76 | 0.76 | 99 | 979.1 |
| 20260906012627 | 72 | 15 | 1.0 | 2.0 | 0.00 | 0.75 | 0.75 | 99 | 978.7 |
| 20260906012122 | 71 | 14 | 1.0 | 3.0 | 0.00 | 0.75 | 0.75 | 99 | 978.8 |
| 20260906011618 | 71 | 16 | 2.0 | 3.0 | 0.00 | 0.75 | 0.75 | 99 | 978.6 |
| 20260906011113 | 70 | 280 | 0.0 | 2.0 | 0.00 | 0.75 | 0.75 | 99 | 978.6 |
| 20260906010608 | 70 | 280 | 0.0 | 1.0 | 0.00 | 0.75 | 0.75 | 99 | 978.5 |
| 20260906010104 | 70 | 280 | 0.0 | 0.0 | 0.00 | 0.75 | 0.75 | 99 | 978.1 |
| 20260906005603 | 70 | 280 | 0.0 | 0.0 | 0.00 | 0.75 | 0.75 | 99 | 978.2 |
| 20260906005102 | 70 | 280 | 0.0 | 0.0 | 0.00 | 0.75 | 0.75 | 99 | 978.0 |
| 20260906004602 | 70 | 280 | 0.0 | 0.0 | 0.00 | 0.75 | 0.75 | 99 | 978.0 |
| 20260906004057 | 70 | 280 | 0.0 | 0.0 | 0.00 | 0.75 | 0.75 | 99 | 978.1 |
| 20260906003552 | 70 | 280 | 0.0 | 0.0 | 0.00 | 0.75 | 0.75 | 99 | 978.0 |
| 20260906003048 | 69 | 280 | 0.0 | 0.0 | 0.00 | 0.75 | 0.75 | 99 | 977.7 |
| 20260906002542 | 70 | 280 | 0.0 | 0.0 | 0.00 | 0.75 | 0.75 | 99 | 977.8 |
| 20260906002037 | 70 | 280 | 0.0 | 0.0 | 0.00 | 0.75 | 0.75 | 99 | 977.7 |
| 20260906001533 | 70 | 280 | 0.0 | 0.0 | 0.00 | 0.75 | 0.75 | 99 | 977.9 |
| 20260906001033 | 70 | 280 | 0.0 | 0.0 | 0.00 | 0.75 | 0.75 | 99 | 977.8 |
| 20260906000529 | 70 | 280 | 0.0 | 0.0 | 0.00 | 0.75 | 0.75 | 99 | 977.9 |
| 20260906000024 | 70 | 280 | 0.0 | 0.0 | 0.00 | 0.75 | 0.75 | 99 | 977.8 |
| 20260905235524 | 71 | 280 | 0.0 | 0.0 | 0.00 | 0.75 | 0.75 | 99 | 977.6 |
| 20260905235019 | 71 | 280 | 0.0 | 0.0 | 0.00 | 0.75 | 0.75 | 99 | 977.6 |
| 20260905234514 | 71 | 280 | 0.0 | 0.0 | 0.00 | 0.75 | 0.75 | 99 | 977.8 |
| 20260905234008 | 71 | 280 | 0.0 | 0.0 | 0.00 | 0.75 | 0.75 | 98 | 977.9 |
| 20260905233503 | 72 | 280 | 0.0 | 0.0 | 0.00 | 0.75 | 0.75 | 98 | 978.0 |
| 20260905233002 | 72 | 280 | 0.0 | 0.0 | 0.00 | 0.75 | 0.75 | 98 | 977.9 |
| 20260905232458 | 72 | 280 | 0.0 | 0.0 | 0.00 | 0.75 | 0.75 | 97 | 977.9 |
| 20260905231954 | 72 | 280 | 0.0 | 0.0 | 0.00 | 0.75 | 0.75 | 97 | 978.0 |
| 20260905231449 | 72 | 280 | 0.0 | 0.0 | 0.00 | 0.75 | 0.75 | 97 | 978.0 |
| 20260905230946 | 73 | 280 | 0.0 | 0.0 | 0.00 | 0.75 | 0.75 | 96 | 978.2 |
| 20260905230444 | 73 | 280 | 0.0 | 0.0 | 0.00 | 0.75 | 0.75 | 95 | 977.9 |
| 20260905225942 | 73 | 280 | 0.0 | 0.0 | 0.00 | 0.75 | 0.75 | 94 | 978.0 |
| 20260905225438 | 73 | 280 | 0.0 | 0.0 | 0.00 | 0.75 | 0.75 | 94 | 977.8 |
| 20260905224933 | 73 | 280 | 0.0 | 0.0 | 0.00 | 0.75 | 0.75 | 94 | 978.0 |
| 20260905224429 | 73 | 280 | 0.0 | 1.0 | 0.00 | 0.75 | 0.75 | 94 | 978.0 |
| 20260905223928 | 74 | 280 | 1.0 | 1.0 | 0.00 | 0.75 | 0.75 | 94 | 977.9 |
| 20260905223426 | 73 | 280 | 0.0 | 1.0 | 0.00 | 0.75 | 0.75 | 94 | 977.9 |
| 20260905222920 | 74 | 280 | 3.0 | 3.0 | 0.00 | 0.75 | 0.75 | 94 | 978.0 |
| 20260905222420 | 74 | 280 | 0.0 | 0.0 | 0.00 | 0.75 | 0.75 | 92 | 978.0 |
| 20260905221915 | 74 | 280 | 1.0 | 1.0 | 0.00 | 0.75 | 0.75 | 90 | 977.9 |
| 20260905221412 | 76 | 280 | 2.0 | 2.0 | 0.00 | 0.75 | 0.75 | 89 | 978.0 |
| 20260905220908 | 77 | 280 | 1.0 | 2.0 | 0.00 | 0.75 | 0.75 | 79 | 977.8 |
| 20260905220404 | 78 | 280 | 0.0 | 1.0 | 0.00 | 0.75 | 0.75 | 82 | 977.8 |
| 20260905215903 | 0 | 0.0 | 0.0 | 0.00 | 0.75 | 0.75 | 977.7 | ||
| 20260905215358 | 0 | 0.0 | 0.0 | 0.00 | 0.75 | 0.75 | 977.7 | ||
| 20260905214850 | 0 | 0.0 | 0.0 | 0.00 | 0.75 | 0.75 | 977.5 | ||
| 20260905214345 | 81 | 280 | 1.0 | 1.0 | 0.00 | 0.75 | 0.75 | 77 | 977.7 |
| 20260905213839 | 81 | 280 | 1.0 | 1.0 | 0.00 | 0.75 | 0.75 | 77 | 977.7 |
| 20260905213336 | 80 | 280 | 1.0 | 1.0 | 0.00 | 0.75 | 0.75 | 78 | 977.7 |
| 20260905212835 | 81 | 280 | 1.0 | 1.0 | 0.00 | 0.75 | 0.75 | 75 | 977.5 |
| 20260905212330 | 0 | 0.0 | 0.0 | 0.00 | 0.75 | 0.75 | 977.5 | ||
| 20260905211824 | 83 | 324 | 1.0 | 1.0 | 0.00 | 0.75 | 0.75 | 77 | 977.4 |
| 20260905211320 | 83 | 324 | 1.0 | 1.0 | 0.00 | 0.75 | 0.75 | 77 | 977.7 |
| 20260905210816 | 0 | 0.0 | 0.0 | 0.00 | 0.00 | 0.00 | 977.5 | ||
| 20260905210315 | 81 | 324 | 0.0 | 1.0 | 0.00 | 0.75 | 0.75 | 76 | 977.7 |
| 20260905205814 | 80 | 324 | 0.0 | 1.0 | 0.00 | 0.75 | 0.75 | 82 | 977.7 |
| 20260905205309 | 79 | 324 | 1.0 | 1.0 | 0.00 | 0.75 | 0.75 | 83 | 977.7 |
| 20260905204808 | 81 | 324 | 1.0 | 2.0 | 0.00 | 0.75 | 0.75 | 77 | 977.5 |
| 20260905204305 | 85 | 325 | 1.0 | 2.0 | 0.00 | 0.75 | 0.75 | 69 | 977.5 |
| 20260905203803 | 85 | 325 | 2.0 | 4.0 | 0.00 | 0.75 | 0.75 | 63 | 977.7 |
| 20260905203259 | 84 | 49 | 0.0 | 2.0 | 0.00 | 0.75 | 0.75 | 71 | 977.6 |
| 20260905202755 | 84 | 49 | 2.0 | 4.0 | 0.00 | 0.75 | 0.75 | 71 | 977.6 |
| 20260905202250 | 83 | 356 | 0.0 | 1.0 | 0.00 | 0.75 | 0.75 | 69 | 977.6 |
| 20260905201746 | 82 | 354 | 0.0 | 1.0 | 0.00 | 0.75 | 0.75 | 70 | 977.5 |
| 20260905201246 | 82 | 359 | 0.0 | 2.0 | 0.00 | 0.75 | 0.75 | 71 | 977.6 |
| 20260905200741 | 81 | 359 | 0.0 | 2.0 | 0.00 | 0.75 | 0.75 | 77 | 977.7 |
| 20260905200237 | 83 | 359 | 3.0 | 4.0 | 0.00 | 0.75 | 0.75 | 75 | 977.7 |
| 20260905195734 | 82 | 302 | 1.0 | 2.0 | 0.00 | 0.75 | 0.75 | 69 | 978.0 |
| 20260905195229 | 81 | 302 | 0.0 | 3.0 | 0.00 | 0.75 | 0.75 | 73 | 978.0 |
| 20260905194725 | 79 | 303 | 0.0 | 0.0 | 0.00 | 0.75 | 0.75 | 85 | 978.0 |
| 20260905194219 | 80 | 303 | 0.0 | 1.0 | 0.00 | 0.75 | 0.75 | 85 | 978.1 |
| 20260905193713 | 80 | 303 | 2.0 | 2.0 | 0.00 | 0.75 | 0.75 | 84 | 978.3 |
| 20260905193208 | 81 | 5 | 1.0 | 1.0 | 0.00 | 0.75 | 0.75 | 80 | 978.3 |
| 20260905192704 | 82 | 5 | 0.0 | 0.0 | 0.00 | 0.75 | 0.75 | 73 | 978.6 |
| 20260905192201 | 80 | 5 | 0.0 | 1.0 | 0.00 | 0.75 | 0.75 | 80 | 978.4 |
| 20260905191700 | 78 | 5 | 0.0 | 1.0 | 0.00 | 0.75 | 0.75 | 88 | 978.4 |
| 20260905191157 | 79 | 5 | 1.0 | 1.0 | 0.00 | 0.75 | 0.75 | 87 | 978.7 |
| 20260905190657 | 80 | 5 | 1.0 | 1.0 | 0.00 | 0.75 | 0.75 | 83 | 978.7 |
| 20260905190155 | 81 | 5 | 0.0 | 1.0 | 0.00 | 0.75 | 0.75 | 76 | 978.8 |
| 20260905185654 | 82 | 6 | 0.0 | 2.0 | 0.00 | 0.75 | 0.75 | 79 | 978.9 |
| 20260905185150 | 82 | 6 | 1.0 | 2.0 | 0.00 | 0.75 | 0.75 | 73 | 978.8 |
| 20260905184649 | 82 | 7 | 1.0 | 2.0 | 0.00 | 0.75 | 0.75 | 71 | 978.6 |
| 20260905184148 | 81 | 6 | 1.0 | 1.0 | 0.00 | 0.75 | 0.75 | 80 | 978.8 |
| 20260905183647 | 82 | 6 | 0.0 | 1.0 | 0.00 | 0.75 | 0.75 | 73 | 978.8 |
| 20260905183142 | 83 | 55 | 1.0 | 2.0 | 0.00 | 0.75 | 0.75 | 71 | 978.8 |
| 20260905182642 | 82 | 63 | 2.0 | 2.0 | 0.00 | 0.75 | 0.75 | 73 | 978.8 |
| 20260905182137 | 81 | 62 | 1.0 | 2.0 | 0.00 | 0.75 | 0.75 | 73 | 978.9 |
| 20260905181632 | 80 | 62 | 0.0 | 1.0 | 0.00 | 0.75 | 0.75 | 74 | 979.0 |
| 20260905181130 | 80 | 65 | 3.0 | 4.0 | 0.00 | 0.75 | 0.75 | 77 | 978.9 |
| 20260905180625 | 79 | 4 | 0.0 | 1.0 | 0.00 | 0.75 | 0.75 | 80 | 978.9 |
| 20260905180121 | 80 | 357 | 0.0 | 2.0 | 0.00 | 0.75 | 0.75 | 76 | 979.2 |
| 20260905175620 | 80 | 358 | 1.0 | 2.0 | 0.00 | 0.75 | 0.75 | 75 | 979.2 |
| 20260905175115 | 81 | 356 | 1.0 | 3.0 | 0.00 | 0.75 | 0.75 | 75 | 979.5 |
| 20260905174611 | 81 | 347 | 1.0 | 1.0 | 0.00 | 0.75 | 0.75 | 78 | 979.7 |
| 20260905174106 | 80 | 347 | 1.0 | 2.0 | 0.00 | 0.75 | 0.75 | 78 | 979.6 |
| 20260905173602 | 79 | 347 | 0.0 | 3.0 | 0.00 | 0.75 | 0.75 | 78 | 979.7 |
| 20260905173058 | 81 | 24 | 3.0 | 3.0 | 0.00 | 0.75 | 0.75 | 73 | 979.6 |
| 20260905172556 | 81 | 29 | 0.0 | 4.0 | 0.00 | 0.75 | 0.75 | 73 | 979.8 |
| 20260905172052 | 79 | 231 | 2.0 | 3.0 | 0.00 | 0.75 | 0.75 | 78 | 979.8 |
| 20260905171549 | 81 | 219 | 2.0 | 2.0 | 0.00 | 0.75 | 0.75 | 78 | 979.8 |
| 20260905171044 | 79 | 218 | 0.0 | 2.0 | 0.00 | 0.75 | 0.75 | 84 | 979.8 |
| 20260905170541 | 79 | 218 | 1.0 | 3.0 | 0.00 | 0.75 | 0.75 | 83 | 979.7 |
| 20260905170036 | 80 | 82 | 3.0 | 4.0 | 0.00 | 0.75 | 0.75 | 84 | 980.0 |
| 20260905165531 | 80 | 297 | 2.0 | 3.0 | 0.00 | 0.75 | 0.75 | 83 | 980.0 |
| 20260905165026 | 78 | 294 | 1.0 | 6.0 | 0.00 | 0.75 | 0.75 | 82 | 980.1 |
| 20260905164525 | 79 | 55 | 1.0 | 1.0 | 0.00 | 0.75 | 0.75 | 81 | 980.0 |
| 20260905164020 | 79 | 56 | 0.0 | 2.0 | 0.00 | 0.75 | 0.75 | 81 | 980.2 |
| 20260905163516 | 78 | 62 | 2.0 | 2.0 | 0.00 | 0.75 | 0.75 | 83 | 980.0 |
| 20260905163013 | 78 | 67 | 1.0 | 3.0 | 0.00 | 0.75 | 0.75 | 84 | 980.3 |
| 20260905162508 | 78 | 67 | 1.0 | 2.0 | 0.00 | 0.75 | 0.75 | 85 | 980.2 |
| 20260905162002 | 77 | 67 | 1.0 | 1.0 | 0.00 | 0.75 | 0.75 | 84 | 980.5 |
| 20260905161502 | 78 | 67 | 2.0 | 4.0 | 0.00 | 0.75 | 0.75 | 82 | 980.5 |
| 20260905161000 | 77 | 67 | 1.0 | 2.0 | 0.00 | 0.75 | 0.75 | 85 | 980.7 |
| 20260905160453 | 78 | 67 | 3.0 | 4.0 | 0.00 | 0.75 | 0.75 | 86 | 980.4 |
| 20260905155953 | 78 | 69 | 0.0 | 1.0 | 0.00 | 0.75 | 0.75 | 84 | 980.5 |
| 20260905155448 | 78 | 70 | 2.0 | 3.0 | 0.00 | 0.75 | 0.75 | 86 | 980.5 |
| 20260905154947 | 77 | 70 | 5.0 | 6.0 | 0.00 | 0.75 | 0.75 | 88 | 980.3 |
| 20260905154442 | 75 | 292 | 0.0 | 2.0 | 0.00 | 0.75 | 0.75 | 92 | 980.6 |
| 20260905153938 | 77 | 292 | 2.0 | 3.0 | 0.00 | 0.75 | 0.75 | 91 | 980.5 |
| 20260905153434 | 75 | 292 | 1.0 | 2.0 | 0.00 | 0.75 | 0.75 | 96 | 980.6 |
| 20260905152933 | 73 | 352 | 1.0 | 4.0 | 0.00 | 0.75 | 0.75 | 96 | 980.5 |
| 20260905152433 | 74 | 257 | 2.0 | 4.0 | 0.00 | 0.75 | 0.75 | 95 | 980.6 |
| 20260905151928 | 74 | 194 | 1.0 | 2.0 | 0.00 | 0.75 | 0.75 | 95 | 980.2 |
| 20260905151424 | 72 | 193 | 1.0 | 1.0 | 0.00 | 0.75 | 0.75 | 98 | 979.8 |
| 20260905150924 | 73 | 192 | 1.0 | 2.0 | 0.00 | 0.75 | 0.75 | 99 | 979.2 |
| 20260905150424 | 71 | 227 | 0.0 | 1.0 | 0.00 | 0.75 | 0.75 | 99 | 979.6 |
| 20260905145920 | 71 | 156 | 1.0 | 2.0 | 0.00 | 0.75 | 0.75 | 99 | 979.6 |
| 20260905145415 | 71 | 159 | 1.0 | 2.0 | 0.00 | 0.75 | 0.75 | 99 | 978.9 |
| 20260905144915 | 71 | 158 | 0.0 | 1.0 | 0.00 | 0.75 | 0.75 | 99 | 978.8 |
| 20260905144411 | 70 | 159 | 1.0 | 3.0 | 0.00 | 0.75 | 0.75 | 99 | 978.8 |
| 20260905143909 | 70 | 144 | 1.0 | 3.0 | 0.00 | 0.75 | 0.75 | 99 | 978.7 |
| 20260905143404 | 70 | 119 | 3.0 | 4.0 | 0.00 | 0.75 | 0.75 | 99 | 979.0 |
| 20260905142903 | 70 | 153 | 1.0 | 3.0 | 0.00 | 0.75 | 0.75 | 99 | 979.1 |
| 20260905142402 | 70 | 283 | 0.0 | 1.0 | 0.00 | 0.75 | 0.75 | 99 | 979.5 |
| 20260905141858 | 70 | 331 | 0.0 | 2.0 | 0.00 | 0.75 | 0.75 | 99 | 979.5 |
| 20260905141353 | 69 | 331 | 0.0 | 2.0 | 0.00 | 0.75 | 0.75 | 99 | 980.1 |
| 20260905140849 | 69 | 331 | 0.0 | 3.0 | 0.07 | 0.75 | 0.75 | 99 | 980.1 |
| 20260905140349 | 69 | 330 | 2.0 | 3.0 | 0.00 | 0.74 | 0.74 | 99 | 980.2 |
| 20260905135847 | 69 | 330 | 0.0 | 1.0 | 0.00 | 0.74 | 0.74 | 99 | 980.1 |
| 20260905135344 | 69 | 330 | 0.0 | 0.0 | 0.07 | 0.74 | 0.74 | 99 | 980.4 |